Regional Weather Roundup
Issued by NWS

Home | Current Version | Previous Version | Text Only | Print | Product List | Glossary Off
Versions: 1 2 3 4 5 6 7 8 9 10 11 12 13 14 15 16 17 18 19 20 21 22 23 24 25 26 27 28 29 30 31 32 33 34 35 36 37 38 39 40 41 42 43 44 45 46 47 48 49 50

000
ASUS43 KMKX 251300
RWRWI

WISCONSIN REGIONAL WEATHER ROUNDUP
NATIONAL WEATHER SERVICE MILWAUKEE/SULLIVAN WI
800 AM CDT SUN SEP 25 2016

NOTE: "FAIR" INDICATES FEW OR NO CLOUDS BELOW 12,000 FEET WITH NO
SIGNIFICANT WEATHER AND/OR OBSTRUCTIONS TO VISIBILITY.

WIZ001-002-006>008-014>016-023>028-251400-
NORTHWEST WISCONSIN

CITY           SKY/WX    TMP DP  RH WIND       PRES   REMARKS
SUPERIOR ARPT  CLOUDY    64  63  95 S7        29.85F
ASHLAND        CLOUDY    63  61  93 S5        29.91F
HAYWARD        CLOUDY    62  60  93 SE6       29.92F FOG
SIREN          LGT RAIN  65  63  94 SE7       29.88F
CUMBERLAND     LGT RAIN  63  61  94 SE10      29.92S
RICE LAKE      DRIZZLE   64  61  91 SE10G16   29.93F
CHETEK         NOT AVBL
LADYSMITH      CLOUDY    62  60  93 SE8       29.97F
EAU CLAIRE     LGT RAIN  65  63  93 S8        29.93S FOG
MENOMONIE      CLOUDY    66  64  93 SE7       29.92S FOG
NEW RICHMOND   DRIZZLE   65  65  98 SE8       29.89F
OSCEOLA        RAIN      66  66 100 SE9       29.90F
$$

WIZ003>005-009-010-017-018-251400-
NORTH CENTRAL WISCONSIN

CITY           SKY/WX    TMP DP  RH WIND       PRES   REMARKS
MANITOWISH WTR NOT AVBL
ARBOR VITAE    CLOUDY    60  57  89 SE9       30.00F
WOODRUFF       CLOUDY    60  57  89 SE9       30.00F
RHINELANDER    CLOUDY    60  60 100 SE9       30.02F
EAGLE RIVER    RAIN      59  54  84 S5        30.03F
LAND O LAKES   CLOUDY    59  55  86 S6        30.04F
PHILLIPS       RAIN      59  59  99 SE7       29.97F
TOMAHAWK       CLOUDY    58  56  91 SE5       30.02F
MEDFORD        CLOUDY   N/A N/A N/A SE7       29.98F HAZE
MERRILL        CLOUDY    59  58  97 SE7       30.03F
$$

WIZ029-030-035-036-043>047-251400-
CENTRAL WISCONSIN

CITY           SKY/WX    TMP DP  RH WIND       PRES   REMARKS
WAUSAU         CLOUDY    61  58  90 SE14      30.01F
MOSINEE        CLOUDY    59  59 100 SE8G18    30.02F
MARSHFIELD     CLOUDY    63  59  87 SE9       29.99S FOG
STEVENS POINT  CLOUDY    59  59 100 SE7       30.03S
WAUPACA        SUNNY     59  58  98 CALM      30.03F
WAUTOMA        CLOUDY    59  59 100 CALM      30.03F
WISC RAPIDS    CLOUDY    63  62  97 SE9       30.01F
CAMP DOUGLAS   PTSUNNY   62  62  99 SE9       29.98F
$$

WIZ011>013-019>022-031-037>040-048>050-251400-
NORTHEAST WISCONSIN

CITY           SKY/WX    TMP DP  RH WIND       PRES   REMARKS
ANTIGO         CLOUDY    57  57  98 SE8G17    30.05F
SHAWANO        PTSUNNY   61  58  90 E3        30.06S
OCONTO         NOT AVBL
STURGEON BAY   CLOUDY    63  59  87 SE9       30.09F
GREEN BAY      CLOUDY    64  63  96 SE10      30.06S
MANITOWOC      NOT AVBL
APPLETON       PTSUNNY   64  63  94 SE10      30.04F
CLINTONVILLE   NOT AVBL
OSHKOSH        PTSUNNY   65  62  90 S12       30.04S
$$

WIZ032>034-041-042-053>061-251400-
SOUTHWEST WISCONSIN

CITY           SKY/WX    TMP DP  RH WIND       PRES   REMARKS
LA CROSSE      CLOUDY    69  65  86 S9        29.94S
SPARTA         CLOUDY    66  63  91 SE3       29.96F
VIROQUA        CLOUDY    63  63 100 SE8       29.97F
BOSCOBEL       PTSUNNY   67  64  90 CALM      29.99S FOG
PRAIRIE DU CHI CLOUDY    65  63  93 CALM      29.96F FOG
PLATTEVILLE    MOSUNNY   65  65 100 SE5       30.02R
$$

WIZ056-057-062-063-064-067-068-251400-
SOUTH CENTRAL WISCONSIN

CITY           SKY/WX    TMP DP  RH WIND       PRES   REMARKS
REEDSBURG      NOT AVBL
BARABOO/DELLS  PTSUNNY   64  62  93 S8        30.01F FOG
LONE ROCK      NOT AVBL
MINERAL POINT  CLOUDY    66  64  94 SE9       30.02S
MADISON        PTSUNNY   65  63  93 SE8       30.03S FOG
MIDDLETON      CLOUDY    64  64 100 E3        30.03F
WATERTOWN      PTSUNNY   64  64 100 SE6       30.05S
MONROE         CLOUDY    64  63  94 S9        30.04S FOG
JANESVILLE     PTSUNNY   66  66 100 S10       30.05R
$$

WIZ051-052-058>065-066-070>072-251400-
SOUTHEAST WISCONSIN

CITY           SKY/WX    TMP DP  RH WIND       PRES   REMARKS
MILWAUKEE      CLOUDY    68  62  81 S14       30.08S
WAUKESHA       SUNNY     63  61  94 SE7       30.09S
MILWAUKEE/TIMM MOSUNNY   66  61  82 SE6       30.09R
RACINE         MOSUNNY   67  61  81 S15       30.10S
BURLINGTON     MOSUNNY   62  60  94 SE6       30.08S
KENOSHA        MOSUNNY   66  60  81 SE14      30.09S
FOND DU LAC    PTSUNNY   66  63  90 SE14      30.05S
SHEBOYGAN      CLOUDY    66  63  90 S10       30.08S
WEST BEND      MOSUNNY   63  61  94 SE7       30.07F
JUNEAU         MOSUNNY   64  62  94 SE9       30.07R
$$

LSZ147-162-251400-
LAKE SUPERIOR

STATION/POSITION TIME  TEMP    WIND        PRES    WAVE
                       AIR SEA DIR/SP/G            HT/PER
                 (UTC) (F)     (DEG/KT/KT) (MB)    (FT/S)
W MID LAKE BUOY  1150   62 61  160/ 10/ 14 1014.1F   3/ 4
DEVILS ISLAND    1200   62     130/  7/  9 1013.6F
SAXON HARBOR     1220   65     180/  4/ 22 1012.9F
$$

LMZ867-665-643>646-251400-
LAKE MICHIGAN

STATION/POSITION TIME  TEMP    WIND        PRES    WAVE
                       AIR SEA DIR/SP/G            HT/PER
                 (UTC) (F)     (DEG/KT/KT) (MB)    (FT/S)
CHAMBERS ISLAND  1200   63     120/  4/  9 1019.0F
S GREEN BAY BUOY 1200   64 66  160/ 12/ 14 1018.3F
N MID LAKE BUOY  1150   62 67  170/ 16/ 19 1019.7F   3/ 5
NORTHPORT PIER   1200   63     150/ 12/ 18 1019.3F
SISTER BAY       1138   63     150/ 11/ 16   N/A
KEWAUNEE LAKESHO 1200   64     160/ 15/ 18 1018.7F
SHEBOYGAN LAKESH 1200   64     150/ 15/ 16 1018.4F
PORT WASHINGTON  1240   63     170/  1/  6 1019.6F
ATWATER BUOY     1200   64 60  150/ 10/ 14 1018.6F
MILWAUKEE LAKESH 1210   64     170/  7/  8   N/A
S MID LAKE BUOY  1150   67 72  140/ 17/ 23 1019.1S   4/ 5
KENOSHA   LAKESH 1200   65     160/ 16/ 18 1018.6S
$$

TC  - TEMPERATURE IN CELSIUS
VSB - VISIBILITY IN STATUTE MILES
WCI - WIND CHILL INDEX
HX  - HEAT INDEX




USA.gov is the U.S. government's official web portal to all federal, state and local government web resources and services.